Tracking 28790 objects as of 19-Apr-2024
HD Live streaming from Space Station
objects crossing your sky now

STARLINK-1334

Track STARLINK-1334 now!
10-day predictions
STARLINK-1334 is classified as:


NORAD ID: 45556
Int'l Code: 2020-025AB
Perigee: 553.5 km
Apogee: 555.2 km
Inclination: 53.1 °
Period: 95.6 minutes
Semi major axis: 6925 km
RCS: Unknown
Launch date: April 22, 2020
Source: United States (US)
Launch site: AIR FORCE EASTERN TEST RANGE (AFETR)
Your satellite tracking list
Your tracking list is empty




NASA's NSSDC Master Catalog

Two Line Element Set (TLE):
1 45556U 20025AB  24109.83533088 -.00003007  00000-0 -18311-3 0  9997
2 45556  53.0543 303.4917 0001240  96.7320 263.3810 15.06388920220793
Source of the keplerian elements: AFSPC